Location: Newark
(48.3500°N, 1.3500°E)
Time: 09:27:12
(UTC+00:00)

X-37B - Visible Passes

Search period start: 30 September 2020 00:00
Search period end: 10 October 2020 00:00
Orbit: 386 x 387 km, 45.0° (Epoch: 18 September)

Date Brightness Start Highest point End Pass type
(mag) Time Alt. Az. Time Alt. Az. Time Alt. Az.
02 Oct 3.0 19:10:15 10° SSW 19:10:54 13° S 19:10:54 13° S visible
03 Oct 3.0 18:13:35 10° SSE 18:13:58 10° SSE 18:14:21 10° SE visible
03 Oct 3.4 19:47:05 10° SW 19:47:32 13° SW 19:47:32 13° SW visible
04 Oct 2.0 18:48:57 10° SSW 18:51:31 23° SSE 18:51:46 22° SSE visible
05 Oct 2.2 19:26:16 10° WSW 19:28:11 28° SW 19:28:11 28° SW visible
06 Oct 1.7 18:27:57 10° SW 18:30:49 31° SSE 18:32:15 21° ESE visible
06 Oct 3.7 20:04:04 10° WSW 20:04:31 13° WSW 20:04:31 13° WSW visible
07 Oct 1.2 19:05:35 10° WSW 19:08:32 44° S 19:08:32 44° S visible
08 Oct 1.4 18:07:09 10° WSW 18:10:08 39° S 18:12:31 14° ESE visible
08 Oct 2.9 19:43:28 10° W 19:44:47 21° WSW 19:44:47 21° WSW visible
09 Oct 1.2 18:44:56 10° WSW 18:48:00 45° S 18:48:46 36° SE visible
